Regional Weather Roundup
Issued by NWS Goodland, KS

Home | Current Version | Previous Version | Text Only | Print | Product List | Glossary Off
Versions: 1 2 3 4 5 6 7 8 9 10 11 12 13 14 15 16 17 18 19 20 21 22 23 24 25 26 27 28 29 30 31 32 33 34 35 36 37 38 39 40 41 42 43 44 45 46 47 48 49 50

751
ASUS43 KGLD 290159
RWRGLD

GOODLAND FORECAST AREA HOURLY WEATHER ROUNDUP
NATIONAL WEATHER SERVICE GOODLAND KS
800 PM MDT WED JUN 28 2017

...OFFICIAL OBSERVATIONS...

CITY           SKY/WX    TMP DP  RH WIND       PRES   REMARKS
GOODLAND KS    PTCLDY    75  58  55 E8        29.78S
HILL CITY KS   CLEAR     82  68  62 NE8       29.71R
IMPERIAL NEB   CLOUDY    79  50  36 S6        29.79R
MCCOOK NEB     CLOUDY    82  57  42 E12       29.74R
AKRON CO       CLOUDY    75  43  31 E5        29.84S THUNDER
BURLINGTON CO  PTCLDY    79  53  40 E10       29.82R
LIMON CO       CLOUDY    79  44  28 E14G23    29.88R
$$

...UNOFFICIAL OBSERVATIONS...

CITY           SKY/WX    TMP DP  RH WIND       PRES   REMARKS
LENORA KS        N/A     84  32  15 MISG        N/A
NORTON KS      CLEAR     81  50  34 NE6       29.73S
SHARON SPRINGS   N/A     81  59  46 NE7         N/A
TRENTON NEB      N/A     81  32  17 SE5         N/A
KIT CARSON CO    N/A     83  49  30 MISG        N/A
YUMA CO        RAIN      70  55  60 NE10      29.82R
$$




USA.gov is the U.S. government's official web portal to all federal, state and local government web resources and services.